FENGYUN 1C DEB

Satellite information

Favourite Embed

Satellite Type and Status

DEBRISIN ORBIT

Key statistics

Satellite FENGYUN 1C DEB at a glance.

Uptime

9715

Days in orbit

Revolutions

≈ 14.7

Per day

Orbit

SSO

Sun Synchronous Orbit

Inclination

98.8

Latest

Satellite identification and parameters

Extended collection of information and parameters for FENGYUN 1C DEB.

Object identification

Identified? True

Debris? True

Object name: FENGYUN 1C DEB

International designator: 1999-025EPC

Object number (NORAD): 37927

Object ID (CCSDS): 37927

Country: PEOPLES REPUBLIC OF CHINA (PRC)

Current information (Y/N): Y

RCS size: SMALL

Orbital parameters

Period: 97.865 minutes

Inclination: 98.8087 deg

SMA: 7034.69 km

Apoapsis: 662.123 km

Periapsis: 650.986 km

RAAN: 126.0022 deg

Eccentricy: 0.0007916

Argument of periapsis: 283.7555 deg

Mean anomaly: 76.2768 deg

Mean motion: 14.71415555 rev/day

Mean motion (dot): 0.00034083 rev/day2

B* drag term: 0.0054829 1/REarth

Two-line elements (TLE)

Creation date: Dec. 9, 2025, 12:16 a.m.

Reference frame: TEME

Reference center: EARTH

Epoch: Dec. 8, 2025, 3:40 p.m. UTC

TLE line 0: 0 FENGYUN 1C DEB

TLE line 1: 1 37927U 99025EPC 25342.65327042 .00034083 00000-0 54829-2 0 9996

TLE line 2: 2 37927 98.8087 126.0022 0007916 283.7555 76.2768 14.71415555650567

Live tracking on map

Real-time ground track for satellite FENGYUN 1C DEB.

In-orbit conjunctions

A list of the most updated potential collisions computed for object FENGYUN 1C DEB.

Target Orbit TCA Probability of collision Miss distance Type
TOMS EP SSO 2025-07-01 21:52:45 0.0001577599 536.0 (m) PAYLOAD
FENGYUN 1C DEB SSO 2024-11-13 11:59:44 0.0009882699 125.0 (m) DEBRIS
SL-8 DEB * LEO 2024-11-02 09:35:52 0.0001167868 74.0 (m) DEBRIS

Associated space launch

Chinese polar orbiting meteorological satellite

FENGYUN 1C DEB was lifted into orbit during the mission ‘Long March 4B | Feng Yun 1C’, on board a Long March 4B space rocket.

The launch took place on May 10, 1999, 1:33 a.m. from Launch Complex 7.

For more information about the launch, click the button.

Launch to space Long March 4B | Feng Yun 1C
Long March 4B | Feng Yun 1C

Agency: N/A

Status: Launch Successful

Launch date: May 10, 1999, 1:33 a.m. UTC

Rocket: Long March 4B

Launch pad: Launch Complex 7

Location: Taiyuan Satellite Launch Center, People's Republic of China

...

Latest news about this satellite

There are no fresh news available about this satellite. Check back as we update our databases every day.


Newsletter sign-up

Weekly statistics, charts and insights to help you stay on top of the space industry.